Location: La Savane
(18.0962°N, 63.0646°W)
Time: 07:48:49
(UTC+00:00)

CRYOSAT 2 - Pass Details

Date: 29 October 2020
Orbit: 714 x 724 km, 92.0° (Epoch: 28 November)

Event Time Altitude Azimuth Distance (km) Brightness Sun altitude
Rises 22:48:45 0° 7° (N) 3,111 7.5 -16.6°
Reaches altitude 10° 22:51:02 10° 9° (N) 2,191 6.7 -17.1°
Maximum altitude 22:55:52 78° 95° (E) 733 4.2 -18.2°
Drops below altitude 10° 23:00:42 10° 182° (S) 2,189 7.0 -19.4°
Sets 23:02:59 0° 183° (S) 3,108 7.8 -19.9°
